Regional Weather Roundup
Issued by NWS Midland/Odessa, TX

Skip options and go directly to product.
Home | Oldest Version | Previous Version | Current Version | All | Graphics & Text | Save Text | Print | Product List | Glossary On

Skip product version selection by date and time.   
661
ASUS44 KMAF 310810
RWRMAF
MIDLAND AREA WEATHER ROUNDUP
NATIONAL WEATHER SERVICE MIDLAND TX
300 AM CDT MON AUG 31 2015

...IN SOUTHWEST TEXAS AND SOUTHEAST NEW MEXICO...

CITY           SKY/WX    TMP DP  RH WIND       PRES   REMARKS
ALPINE         CLEAR     63  49  62 CALM      30.17F
ANDREWS        FAIR      69  57  64 SW7       30.05F
ARTESIA        CLEAR     66  52  59 S8        30.05F
BIG SPRING     CLEAR     65  56  71 S6        30.05F
CARLSBAD       CLEAR     70  48  45 S7        30.03F
DRYDEN           N/A     72  60  66 NE7       30.00F
FORT STOCKTON  CLEAR     71  57  61 S10       30.03F
GUAD PASS      CLEAR     67  46  47 NE16      30.18S
HOBBS            N/A     64  63  94 S7        30.08F
MARFA          CLEAR     55  48  76 N8        30.15F
MIDLAND AIRPK  CLEAR     71  57  60 S6        30.04F
MIDLAND INTL   CLEAR     71  56  58 S6        30.03F
ODESSA         CLEAR     71  55  56 S6        30.04F
PECOS          CLEAR     72  55  55 E9        30.00F
PRESIDIO       NOT AVBL
SEMINOLE       CLEAR     65  56  71 SW5       30.07F
SNYDER         CLEAR     67  57  70 SW6       30.03S
WINK           CLEAR     71  58  63 SE7       30.02F
$$
...OTHER STATIONS IN TEXAS...

CITY           SKY/WX    TMP DP  RH WIND       PRES   REMARKS
ABILENE        CLEAR     73  59  61 S8        29.99F
AMARILLO       CLEAR     64  53  67 S10       30.03F
AUSTIN         PTCLDY    71  67  87 S3        29.98S
BROWNSVILLE    PTCLDY    76  74  93 E3        29.94F
CORPUS CHRISTI PTCLDY    78  72  81 CALM      29.95S
DALLAS FTW     CLEAR     77  64  64 S8        29.96S
DEL RIO        CLEAR     78  62  57 E6        29.94F
EL PASO        CLEAR     75  48  38 S3        30.04S
HOUSTON INT    PTCLDY    73  69  87 CALM      29.98S
LUBBOCK        CLEAR     70  56  61 SW12      30.04F
SAN ANGELO     CLEAR     67  61  81 CALM      30.00F
SAN ANTONIO    PTCLDY    77  70  79 SE6       29.99F
WACO           PTCLDY    73  68  84 S6        29.97S
WICHITA FALLS  NOT AVBL
$$
...OTHER LOCATIONS IN NEW MEXICO...

CITY           SKY/WX    TMP DP  RH WIND       PRES   REMARKS
ALAMAGORDO     CLEAR     68  45  42 CALM      30.07S
ALBUQUERQUE    PTCLDY    75  48  38 NW7       30.14S
CANNON AFB     CLEAR     63  51  64 SW6       30.08F
CLOVIS         CLEAR     61  48  63 SW9       30.09F
HOLLOMAN AFB   CLEAR     74  47  38 N8        30.05S
ROSWELL        CLEAR     70  49  47 S12       30.04F
RUIDOSO        CLEAR     59  45  58 MISG      30.26S
SANTA FE       PTCLDY    68  45  43 NE13      30.18F
TRUTH OR CONSE CLEAR     72  49  44 W6        30.10R
TUCUMCARI      CLEAR     67  50  54 SW7       30.04F
$$

USA.gov is the U.S. government's official web portal to all federal, state and local government web resources and services.